Manchester, NH

2:29 PM EST on February 25, 2017 (GMT -0500)
Manchester

Weather History for KMHT - August, 2013

Change the Weather History Date:

Friday, August 30, 2013

  Actual Average Record
Temperature  
Mean Temperature 72 °F 68 °F  
Max Temperature 84 °F 79 °F 94 °F (1977)
Min Temperature 60 °F 58 °F 34 °F (1965)
Degree Days  
Heating Degree Days 0 1  
Month to date heating degree days 8  
Since 1 June heating degree days 71  
Since 1 July heating degree days 13  
Cooling Degree Days 7 4  
Month to date cooling degree days 193  
Year to date cooling degree days 582  
Since 1 June cooling degree days 552  
Growing Degree Days 22 (Base 50)    
Moisture  
Dew Point 62 °F    
Average Humidity 77    
Maximum Humidity 96    
Minimum Humidity 47    
Precipitation  
Precipitation 0.00 in 0.11 in 2.20 in (1975)
Month to date precipitation 3.53  
Year to date precipitation 29.16  
Snow  
Snow 0.00 in - - ()
Month to date snowfall  
Since 1 July snowfall  
Snow Depth -    
Sea Level Pressure  
Sea Level Pressure 29.93 in    
Wind  
Wind Speed 2 mph (SSW)    
Max Wind Speed 7 mph    
Max Gust Speed -    
Visibility 8 miles    
Events      
T = Trace of Precipitation, MM = Missing Value Source: NWS Daily Summary

Daily Weather History Graph

Daily Weather History Graph

Search for Another Location

Airport or City:

Trip Planner

Search our weather history database for the weather conditions in past years. The results will help you decide how hot, cold, wet, or windy it might be!

Date:

Astronomy

Aug. 30, 2013 Rise Set
Actual Time 6:08 AM EDT 7:23 PM EDT
Civil Twilight 5:39 AM EDT 7:52 PM EDT
Nautical Twilight 5:03 AM EDT 8:27 PM EDT
Astronomical Twilight 4:26 AM EDT 9:04 PM EDT
Moon 12:39 AM EDT (8/30) 3:41 PM EDT (8/30)
Length of Visible Light 14h 13m
Length of Day
13h 15m
Waning Crescent, 29% of the Moon is Illuminated
Aug 30
Waning Crescent
Sep 5
New
Sep 12
First Quarter
Sep 19
Full
Sep 26
Last Quarter

Hourly Weather History & Observations

Time (EDT) Temp. Heat Index Dew Point Humidity Pressure Visibility Wind Dir Wind Speed Gust Speed Precip Events Conditions
12:38 AM 62.6 °F - 59.0 °F 88% 30.01 in 10.0 mi Calm Calm - N/A   Scattered Clouds
12:53 AM 62.1 °F - 59.0 °F 90% 30.04 in 10.0 mi Calm Calm - N/A   Partly Cloudy
1:53 AM 62.1 °F - 59.0 °F 90% 30.04 in 10.0 mi West 3.5 mph - N/A   Overcast
2:53 AM 61.0 °F - 57.9 °F 90% 30.01 in 10.0 mi SW 3.5 mph - N/A   Mostly Cloudy
3:23 AM 60.8 °F - 57.2 °F 88% 29.97 in 3.0 mi Calm Calm - N/A   Mostly Cloudy
3:53 AM 60.1 °F - 57.9 °F 93% 30.01 in 1.0 mi WSW 3.5 mph - N/A   Overcast
4:33 AM 60.8 °F - 59.0 °F 94% 29.96 in 1.0 mi Calm Calm - N/A   Overcast
4:53 AM 60.1 °F - 59.0 °F 96% 30.00 in 2.0 mi Calm Calm - N/A   Overcast
5:53 AM 61.0 °F - 59.0 °F 93% 30.00 in 2.0 mi SSW 3.5 mph - N/A   Mostly Cloudy
5:57 AM 60.8 °F - 59.0 °F 94% 29.96 in 5.0 mi South 4.6 mph - N/A   Overcast
6:14 AM 60.8 °F - 59.0 °F 94% 29.96 in 5.0 mi South 4.6 mph - N/A   Overcast
6:53 AM 61.0 °F - 59.0 °F 93% 29.99 in 7.0 mi South 5.8 mph - N/A   Mostly Cloudy
7:53 AM 62.1 °F - 59.0 °F 90% 29.99 in 7.0 mi SSW 3.5 mph - N/A   Mostly Cloudy
8:53 AM 64.0 °F - 60.1 °F 87% 29.99 in 7.0 mi SSW 4.6 mph - N/A   Overcast
9:08 AM 64.4 °F - 60.8 °F 88% 29.95 in 10.0 mi Calm Calm - N/A   Mostly Cloudy
9:39 AM 68.0 °F - 60.8 °F 78% 29.95 in 10.0 mi Variable 3.5 mph - N/A   Scattered Clouds
9:53 AM 68.0 °F - 61.0 °F 78% 29.98 in 10.0 mi SW 3.5 mph - N/A   Scattered Clouds
10:09 AM 69.8 °F - 62.6 °F 78% 29.94 in 10.0 mi Calm Calm - N/A   Mostly Cloudy
10:53 AM 73.0 °F - 63.0 °F 71% 29.95 in 10.0 mi Calm Calm - N/A   Mostly Cloudy
11:03 AM 71.6 °F - 62.6 °F 73% 29.92 in 10.0 mi Calm Calm - N/A   Scattered Clouds
11:53 AM 75.0 °F - 64.0 °F 69% 29.94 in 10.0 mi Calm Calm - N/A   Partly Cloudy
12:53 PM 78.1 °F - 64.0 °F 62% 29.90 in 10.0 mi SSW 6.9 mph - N/A   Partly Cloudy
1:53 PM 81.0 °F 82.5 °F 64.0 °F 56% 29.88 in 10.0 mi Calm Calm - N/A   Partly Cloudy
2:53 PM 82.9 °F 84.4 °F 64.0 °F 53% 29.86 in 10.0 mi Variable 4.6 mph - N/A   Scattered Clouds
3:53 PM 84.0 °F 84.9 °F 63.0 °F 49% 29.85 in 10.0 mi Variable 4.6 mph - N/A   Partly Cloudy
4:53 PM 84.9 °F 85.9 °F 63.0 °F 48% 29.83 in 10.0 mi West 4.6 mph - N/A   Partly Cloudy
5:53 PM 84.0 °F 84.5 °F 62.1 °F 47% 29.82 in 10.0 mi WSW 3.5 mph - N/A   Clear
6:53 PM 82.0 °F 83.4 °F 64.0 °F 54% 29.83 in 10.0 mi South 5.8 mph - N/A   Clear
7:53 PM 79.0 °F - 66.0 °F 64% 29.83 in 10.0 mi SSW 6.9 mph - N/A   Clear
8:53 PM 77.0 °F - 66.0 °F 69% 29.84 in 10.0 mi South 6.9 mph - N/A   Clear
9:53 PM 75.0 °F - 66.0 °F 73% 29.84 in 10.0 mi South 5.8 mph - N/A   Clear
10:53 PM 73.9 °F - 66.0 °F 76% 29.83 in 10.0 mi South 3.5 mph - N/A   Clear
11:53 PM 73.0 °F - 66.0 °F 79% 29.83 in 10.0 mi South 4.6 mph - N/A   Clear